Weather History for Steamboat Springs, CO

Change the Weather History Date:

Saturday, February 25, 2012

  Actual Average Record
Temperature  
Mean Temperature 22 °F -  
Max Temperature 45 °F 38 °F 54 °F (1981)
Min Temperature 0 °F 7 °F -28 °F (1952)
Degree Days  
Heating Degree Days 42    
Moisture  
Dew Point 5 °F    
Average Humidity 61    
Maximum Humidity 91    
Minimum Humidity 17    
Precipitation  
Precipitation 0.00 in - - ()
Sea Level Pressure  
Sea Level Pressure 29.88 in    
Wind  
Wind Speed 4 mph (WSW)    
Max Wind Speed 30 mph    
Max Gust Speed 48 mph    
Visibility 10 miles    
Events      
Averages and records for this station are not official NWS values.
T = Trace of Precipitation, MM = Missing Value Source: NWS Daily Summary

Daily Weather History Graph

Daily Weather History Graph

Search for Another Location

Airport:

Trip Planner

Search our weather history database for the weather conditions in past years. The results will help you decide how hot, cold, wet, or windy it might be!

Date:

Astronomy

Feb. 25, 2012 Rise Set
Actual Time 6:47 AM MST 5:53 PM MST
Civil Twilight 6:20 AM MST 6:21 PM MST
Nautical Twilight 5:48 AM MST 6:53 PM MST
Astronomical Twilight 5:17 AM MST 7:24 PM MST
Moon 8:11 AM MST (2/25) 9:58 PM MST (2/25)
Length of Visible Light 12h 01m
Length of Day
11h 06m
Waxing Crescent, 14% of the Moon is Illuminated
Feb 25
Waxing Crescent
Feb 29
First Quarter
Mar 8
Full
Mar 14
Last Quarter
Mar 22
New

Hourly Weather History & Observations

Time (MST) Temp. Windchill Dew Point Humidity Pressure Visibility Wind Dir Wind Speed Gust Speed Precip Events Conditions
12:17 AM 9.9 °F - 3.9 °F 77% 30.16 in 10.0 mi Calm Calm - N/A   Clear
12:37 AM 9.7 °F - 3.2 °F 75% 30.15 in 10.0 mi Calm Calm - N/A   Clear
12:57 AM 9.1 °F - 2.8 °F 76% 30.15 in 10.0 mi Calm Calm - N/A   Clear
1:17 AM 9.0 °F - 3.2 °F 77% 30.14 in 10.0 mi Calm Calm - N/A   Clear
1:37 AM 8.4 °F - 3.7 °F 81% 30.13 in 10.0 mi Calm Calm - N/A   Clear
1:57 AM 5.5 °F - 1.0 °F 82% 30.11 in 10.0 mi Calm Calm - N/A   Clear
2:17 AM 7.5 °F - 3.4 °F 83% 30.10 in 10.0 mi Calm Calm - N/A   Clear
2:36 AM 6.4 °F - 2.5 °F 84% 30.10 in 10.0 mi Calm Calm - N/A   Clear
2:57 AM 7.2 °F - 2.8 °F 82% 30.08 in 10.0 mi Calm Calm - N/A   Clear
3:17 AM 6.6 °F - 3.0 °F 85% 30.07 in 10.0 mi Calm Calm - N/A   Clear
3:37 AM 5.7 °F - 1.8 °F 84% 30.05 in 10.0 mi Calm Calm - N/A   Clear
3:57 AM 3.9 °F -3.4 °F 1.8 °F 91% 30.05 in 10.0 mi West 3.5 mph - N/A   Clear
4:17 AM 4.5 °F - 1.9 °F 89% 30.03 in 10.0 mi Calm Calm - N/A   Clear
4:37 AM 2.5 °F - -0.4 °F 88% 30.02 in 10.0 mi Calm Calm - N/A   Clear
4:57 AM 4.3 °F -2.9 °F 1.0 °F 86% 30.02 in 10.0 mi East 3.5 mph - N/A   Clear
5:17 AM 5.0 °F - 2.5 °F 89% 30.00 in 10.0 mi Calm Calm - N/A   Clear
5:37 AM 0.7 °F -7.1 °F -3.1 °F 84% 29.99 in 10.0 mi West 3.5 mph - N/A   Clear
5:57 AM 3.2 °F -4.2 °F -0.0 °F 86% 29.98 in 10.0 mi WSW 3.5 mph - N/A   Clear
6:17 AM 1.6 °F - -2.4 °F 83% 29.96 in 10.0 mi Calm Calm - N/A   Clear
6:37 AM 2.3 °F -10.2 °F -1.7 °F 84% 29.94 in 10.0 mi NW 6.9 mph - N/A   Clear
6:57 AM 4.3 °F -2.9 °F 1.2 °F 87% 29.94 in 10.0 mi WNW 3.5 mph - N/A   Clear
7:17 AM 0.3 °F -9.5 °F -3.6 °F 83% 29.94 in 10.0 mi ESE 4.6 mph - N/A   Clear
7:37 AM 2.3 °F - -1.5 °F 84% 29.92 in 10.0 mi Calm Calm - N/A   Clear
7:57 AM 3.0 °F - -1.5 °F 82% 29.90 in 10.0 mi Calm Calm - N/A   Clear
8:17 AM 5.4 °F - 0.5 °F 80% 29.92 in 10.0 mi Calm Calm - N/A   Clear
8:37 AM 6.1 °F -5.6 °F -0.0 °F 76% 29.88 in 10.0 mi East 6.9 mph - N/A   Clear
9:17 AM 10.4 °F 4.0 °F 2.1 °F 69% 29.83 in 10.0 mi West 3.5 mph - N/A   Clear
9:37 AM 13.3 °F - 2.8 °F 63% 29.81 in 10.0 mi Calm Calm - N/A   Clear
9:57 AM 15.8 °F - 4.1 °F 60% 29.80 in 10.0 mi Calm Calm - N/A   Scattered Clouds
10:17 AM 19.6 °F - 5.4 °F 54% 29.78 in 10.0 mi Calm Calm - N/A   Mostly Cloudy
10:37 AM 21.0 °F - 7.3 °F 56% 29.77 in 10.0 mi Calm Calm - N/A   Clear
10:57 AM 23.7 °F - 8.1 °F 51% 29.76 in 10.0 mi Calm Calm - N/A   Clear
11:17 AM 24.3 °F - 8.6 °F 51% 29.75 in 10.0 mi Calm Calm - N/A   Clear
11:37 AM 30.0 °F 26.5 °F 10.9 °F 45% 29.75 in 10.0 mi SSE 3.5 mph - N/A   Clear
11:57 AM 31.6 °F - 11.7 °F 44% 29.73 in 10.0 mi Calm Calm - N/A   Clear
12:17 PM 34.5 °F - 12.0 °F 39% 29.73 in 10.0 mi Calm Calm - N/A   Clear
12:37 PM 37.6 °F - 12.6 °F 36% 29.72 in 10.0 mi Calm Calm - N/A   Clear
12:57 PM 43.2 °F 38.4 °F 5.0 °F 21% 29.72 in 10.0 mi WSW 8.1 mph - N/A   Clear
1:17 PM 44.2 °F 36.2 °F 6.8 °F 22% 29.69 in 10.0 mi SW 19.6 mph 36.8 mph N/A   Clear
1:37 PM 44.6 °F 36.1 °F 4.3 °F 19% 29.69 in 7.0 mi SW 21.9 mph 42.6 mph N/A   Clear
2:17 PM 45.1 °F 35.8 °F 2.1 °F 17% 29.68 in 10.0 mi SW 27.6 mph 39.1 mph N/A   Scattered Clouds
2:37 PM 42.6 °F 33.8 °F 3.6 °F 20% 29.67 in 10.0 mi SW 20.7 mph 43.7 mph N/A   Mostly Cloudy
2:57 PM 43.0 °F 32.9 °F 5.4 °F 21% 29.67 in 10.0 mi WSW 27.6 mph 46.0 mph N/A   Mostly Cloudy
3:17 PM 42.8 °F 32.3 °F 3.7 °F 20% 29.67 in 10.0 mi SW 29.9 mph 48.3 mph N/A   Mostly Cloudy
3:37 PM 41.9 °F 32.6 °F 6.4 °F 23% 29.67 in 10.0 mi SW 21.9 mph 34.5 mph N/A   Overcast
4:17 PM 36.9 °F 25.6 °F 12.6 °F 37% 29.69 in 10.0 mi West 23.0 mph 34.5 mph N/A   Mostly Cloudy
4:37 PM 35.6 °F 23.4 °F 13.3 °F 40% 29.70 in 10.0 mi West 25.3 mph 32.2 mph N/A   Scattered Clouds
4:57 PM 34.5 °F 21.3 °F 13.3 °F 42% 29.70 in 10.0 mi West 28.8 mph 35.7 mph N/A   Clear
5:17 PM 32.0 °F 19.5 °F 14.0 °F 48% 29.73 in 10.0 mi West 21.9 mph 34.5 mph N/A   Clear
5:37 PM 31.5 °F 18.5 °F 10.6 °F 42% 29.74 in 10.0 mi West 23.0 mph 33.4 mph N/A   Clear
6:17 PM 28.0 °F 16.5 °F 9.1 °F 45% 29.79 in 10.0 mi West 15.0 mph 27.6 mph N/A   Clear
6:37 PM 25.7 °F 14.6 °F 8.1 °F 47% 29.81 in 10.0 mi West 12.7 mph 17.3 mph N/A   Clear
6:57 PM 24.6 °F 12.7 °F 8.1 °F 49% 29.83 in 10.0 mi West 13.8 mph 19.6 mph N/A   Scattered Clouds
7:17 PM 23.4 °F 15.2 °F 7.2 °F 50% 29.84 in 10.0 mi SSW 6.9 mph - N/A   Scattered Clouds
7:57 PM 20.1 °F 11.3 °F 7.2 °F 57% 29.86 in 10.0 mi West 6.9 mph - N/A   Mostly Cloudy
8:17 PM 21.2 °F 10.1 °F 5.9 °F 52% 29.87 in 10.0 mi West 10.4 mph 20.7 mph N/A   Mostly Cloudy
8:37 PM 20.8 °F - 6.3 °F 53% 29.88 in 10.0 mi Calm Calm - N/A   Overcast
8:57 PM 20.1 °F 8.8 °F 7.5 °F 58% 29.88 in 10.0 mi SW 10.4 mph 16.1 mph N/A   Overcast
9:17 PM 20.3 °F 7.7 °F 7.7 °F 58% 29.90 in 10.0 mi SW 12.7 mph - N/A   Overcast
9:37 PM 20.1 °F 6.4 °F 7.7 °F 59% 29.91 in 10.0 mi SW 15.0 mph - N/A   Overcast
9:57 PM 19.8 °F 6.5 °F 8.2 °F 61% 29.91 in 10.0 mi SW 13.8 mph 17.3 mph N/A   Overcast
10:17 PM 19.8 °F 6.5 °F 8.2 °F 61% 29.91 in 10.0 mi SW 13.8 mph - N/A   Overcast
10:37 PM 19.4 °F 6.0 °F 8.1 °F 61% 29.92 in 10.0 mi SW 13.8 mph 18.4 mph N/A   Overcast
10:57 PM 19.2 °F 9.3 °F 7.7 °F 61% 29.92 in 10.0 mi SW 8.1 mph - N/A   Overcast
11:17 PM 19.0 °F 9.0 °F 7.3 °F 60% 29.92 in 10.0 mi SW 8.1 mph - N/A   Overcast
11:37 PM 19.0 °F 8.2 °F 5.4 °F 55% 29.92 in 10.0 mi WSW 9.2 mph - N/A   Overcast
11:57 PM 18.1 °F 7.9 °F 5.0 °F 57% 29.92 in 10.0 mi WSW 8.1 mph - N/A   Overcast